星链-34368 (STARLINK-34368)

导读 | 豆包AI

STARLINK-34368是美国太空探索技术公司(SpaceX)星链(Starlink)互联网星座的成员,于2025年6月8日发射升空。该卫星运行于近地轨道,属于星链项目扩容的一部分,旨在为全球尤其是偏远地区提供高速、低延迟的宽带互联网接入服务,进一步完善了星链星座的全球覆盖能力,推动太空互联网基础设施建设。

Basic Information
目录编号:
64311
目录名称:
STARLINK-34368
国际标识:
2025-123W
轨道中心:
EARTH
卫星名称:
星链-34368
卫星全名:
星链-34368 (STARLINK-34368)
卫星状态:
在轨 (已飞行325 天)
发射日期:
2025-06-08 UTC
国别 :
美国 (US)
星等 :
--
Orbit Information
数据来源 国际轨道数据 AOE轨道数据
星历时间 2026-04-29T13:06:04+0800
11小时前
查看轨道信息
2026-04-27T02:00:00+0800
2天前
查看轨道信息
半长轴 6950.206km 6950.208km
偏心率 0.0002815 0.0003075
轨道倾角 70.001° 70.000°
近地点辐角 265.603° 266.956°
升交点赤经 67.171° 73.378°
平近点角 94.481° 133.916°
近地点 570.112km 569.933km
远地点 574.026km 574.209km
周期 96.107分钟 96.107分钟
每日圈数 14.98326 14.983253
Detailed Information
固有亮度:
5
最大亮度:
2.5
卫星平台:
Starlink V1.0
覆盖范围:
全球
运营商:
太空探索技术公司
运营商所在国:
美国
制造商(研发单位):
太空探索技术公司
制造商所在国:
美国
使用方式:
暂无
Satellite Introduction
Starlink 计划是 SpaceX 推出的全球卫星互联网项目,通过发射低轨道卫星,为全球尤其是偏远地区提供高速、低延迟的互联网服务。自 2019 年起,Starlink 已部署数千颗卫星,旨在缩小全球数字鸿沟,推动互联网普及。该项目还为军事、航空等行业提供通信支持,带来广泛经济效益。
2D Orbit Map
3D Orbit Map
Orbit Altitude Analysis Chart
Orbit Inclination Analysis Chart
Orbit Comprehensive Analysis Chart
View Comprehensive Chart